Home > Weather > Bitterfeld-Wolfen > Past weeks

Flag for Germany Past Weather in Bitterfeld-Wolfen, Saxony-Anhalt, Germany — Yesterday and Last 2 Weeks

Now
66 °F

Clear.


Feels Like: 66 °F
Forecast: 64 / 85 °F
Wind: 6 mph from Northeast

Location: Leipzig-Schkeuditz

Current Time: Jul 24, 2016 at 6:58:28 AM

Latest Report: Jul 24, 2016 at 6:20 AM


Visibility: 10 mi

Pressure: 30.09 "Hg

Humidity: 88%

Dew Point: 63 °F

Location of Bitterfeld-WolfenLocation

Past Weather in Bitterfeld-Wolfen — Graph

°F

Bitterfeld-Wolfen Temperature Yesterday

Maximum temperature yesterday: 84 °F (at 1:50 PM)
Minimum temperature yesterday: 61 °F (at 4:50 AM)
Average temperature yesterday: 73 °F

High & Low Weather Summary for the Past Weeks

 TemperatureHumidityPressure
High88 °F (Jul 22, 3:20 PM)100% (Jul 14, 7:20 AM)30.27 "Hg (Jul 14, 7:20 AM)
Low48 °F (Jul 16, 5:50 AM)25% (Jul 23, 1:50 PM)29.77 "Hg (Jul 11, 1:20 AM)
Average69 °F64%30.02 "Hg
* Reported Jul 9 5:20 AM — Jul 24 5:20 AM, Bitterfeld-Wolfen, Weather by CustomWeather, © 2016

Note: Actual official high and low records may vary slightly from our data, if they occured in-between our weather recording intervals... More about our weather records

Advertising

Bitterfeld-Wolfen Weather History for the Previous 24 Hours

Scroll right to see more
 ConditionsComfort  
Time TempWeatherWind HumidityBarometerVisibility
5:20 AM
Sun, Jul 24
66 °FPassing clouds.6 mph83%30.07 "HgN/A
4:50 AM66 °FClear.6 mph83%30.07 "Hg10 mi
4:20 AM68 °FClear.6 mph78%30.07 "Hg10 mi
3:50 AM66 °FClear.5 mph83%30.07 "Hg10 mi
3:20 AM68 °FClear.6 mph78%30.07 "Hg10 mi
2:50 AM68 °FClear.5 mph78%30.09 "Hg10 mi
2:20 AM68 °FClear.3 mph78%30.07 "Hg10 mi
1:50 AM70 °FClear.6 mph73%30.07 "Hg10 mi
1:20 AM70 °FClear.7 mph73%30.07 "Hg10 mi
12:50 AM70 °FClear.5 mph73%30.07 "Hg10 mi
12:20 AM70 °FClear.3 mph73%30.07 "Hg10 mi
11:50 PM
Sat, Jul 23
70 °FClear.2 mph73%30.07 "Hg10 mi
11:20 PM70 °FClear.3 mph73%30.07 "Hg10 mi
10:50 PM70 °FClear.3 mph73%30.07 "Hg10 mi
10:20 PM72 °FClear.6 mph69%30.07 "Hg10 mi
9:50 PM68 °FSunny.5 mph78%30.07 "Hg10 mi
9:20 PM72 °FSunny.7 mph69%30.04 "Hg10 mi
8:50 PM73 °FPassing clouds.6 mph61%30.04 "HgN/A
8:20 PM73 °FSunny.6 mph61%30.04 "Hg10 mi
7:50 PM73 °FLight rain. Clear.8 mph65%30.04 "HgN/A
7:20 PM77 °FLight rain. Clear.2 mph51%30.04 "HgN/A
6:50 PM81 °FLight rain. Clear.5 mph39%30.04 "HgN/A
6:20 PM81 °FSunny.6 mph34%30.04 "Hg10 mi
5:50 PM82 °FSunny.5 mph32%30.04 "Hg10 mi
5:20 PM82 °FSunny.7 mph30%30.04 "Hg10 mi
4:50 PM84 °FPassing clouds.8 mph31%30.04 "HgN/A
4:20 PM84 °FPassing clouds.8 mph27%30.04 "HgN/A
3:50 PM84 °FPassing clouds.8 mph25%30.04 "HgN/A
3:20 PM84 °FSunny.8 mph25%30.04 "Hg10 mi
2:50 PM84 °FPassing clouds.9 mph25%30.04 "HgN/A
2:20 PM84 °FPassing clouds.9 mph25%30.04 "HgN/A
1:50 PM84 °FPassing clouds.9 mph25%30.04 "HgN/A
1:20 PM82 °FPassing clouds.12 mph28%30.04 "HgN/A
12:50 PM81 °FPassing clouds.10 mph32%30.04 "HgN/A
12:20 PM81 °FSunny.12 mph32%30.04 "Hg10 mi
11:50 AM81 °FPassing clouds.9 mph32%30.04 "HgN/A
11:20 AM79 °FPassing clouds.9 mph34%30.04 "HgN/A
10:50 AM79 °FPassing clouds.10 mph34%30.04 "HgN/A
10:20 AM77 °FSunny.12 mph39%30.04 "Hg10 mi
9:50 AM73 °FPassing clouds.8 mph44%30.04 "HgN/A
9:20 AM72 °FBroken clouds.5 mph47%30.04 "HgN/A
8:50 AM68 °FPassing clouds.3 mph56%30.04 "HgN/A
8:20 AM66 °FPassing clouds.3 mph56%30.04 "HgN/A
7:50 AM64 °FPassing clouds.3 mph60%30.04 "HgN/A
7:20 AM63 °FSunny.6 mph64%30.04 "Hg10 mi
6:50 AM63 °FSunny.5 mph59%30.04 "Hg10 mi
6:20 AM61 °FPassing clouds.5 mph63%30.04 "HgN/A
Weather by CustomWeather, © 2016

See weather overviewHow to use our weather pages